| time (UTC) | temp F | wind direction | speed MPH | gust MPH | rain 1hr in | rain 24hr in | rain mn in | humidity % | barometer mb |
| 20260507062457 | 63 | 101 | 1.0 | 3.0 | 0.00 | 0.03 | 0.03 | 73 | 1013.2 |
| 20260507061959 | 63 | 235 | 3.0 | 3.0 | 0.00 | 0.03 | 0.03 | 74 | 1013.3 |
| 20260507060957 | 62 | 219 | 4.0 | 8.0 | 0.00 | 0.03 | 0.03 | 76 | 1013.2 |
| 20260507055957 | 62 | 142 | 2.0 | 6.0 | 0.00 | 0.03 | 0.03 | 76 | 1013.0 |
| 20260507055458 | 62 | 214 | 2.0 | 6.0 | 0.00 | 0.03 | 0.03 | 76 | 1013.2 |
| 20260507055001 | 62 | 160 | 2.0 | 6.0 | 0.00 | 0.03 | 0.03 | 77 | 1012.9 |
| 20260507054457 | 62 | 89 | 0.0 | 6.0 | 0.00 | 0.03 | 0.03 | 77 | 1013.2 |
| 20260507053956 | 62 | 224 | 2.0 | 6.0 | 0.00 | 0.03 | 0.03 | 77 | 1012.9 |
| 20260507053459 | 62 | 181 | 0.0 | 4.0 | 0.00 | 0.03 | 0.03 | 79 | 1013.1 |
| 20260507052500 | 61 | 107 | 0.0 | 0.0 | 0.00 | 0.03 | 0.03 | 81 | 1012.8 |
| 20260507052000 | 61 | 107 | 0.0 | 1.0 | 0.00 | 0.03 | 0.03 | 80 | 1012.7 |
| 20260507051458 | 61 | 107 | 0.0 | 1.0 | 0.00 | 0.03 | 0.03 | 80 | 1012.8 |
| 20260507050959 | 61 | 107 | 0.0 | 2.0 | 0.00 | 0.03 | 0.03 | 80 | 1012.5 |
| 20260507050500 | 61 | 107 | 0.0 | 3.0 | 0.00 | 0.03 | 0.03 | 80 | 1012.6 |
| 20260507045959 | 60 | 98 | 1.0 | 3.0 | 0.00 | 0.03 | 0.03 | 80 | 1012.6 |
| 20260507045458 | 60 | 78 | 1.0 | 3.0 | 0.00 | 0.03 | 0.03 | 80 | 1012.5 |
| 20260507045000 | 60 | 94 | 1.0 | 4.0 | 0.00 | 0.03 | 0.03 | 81 | 1012.4 |
| 20260507044459 | 60 | 158 | 1.0 | 6.0 | 0.00 | 0.03 | 0.03 | 81 | 1012.1 |
| 20260507043501 | 59 | 254 | 3.0 | 7.0 | 0.00 | 0.03 | 0.03 | 83 | 1012.3 |
| 20260507042959 | 59 | 225 | 0.0 | 4.0 | 0.00 | 0.03 | 0.03 | 84 | 1012.1 |
| 20260507042458 | 59 | 238 | 1.0 | 3.0 | 0.00 | 0.03 | 0.03 | 85 | 1012.0 |
| 20260507041946 | 59 | 271 | 2.0 | 3.0 | 0.00 | 0.03 | 0.03 | 85 | 1012.2 |
| 20260507041446 | 59 | 293 | 2.0 | 3.0 | 0.00 | 0.03 | 0.03 | 85 | 1011.9 |
| 20260507040949 | 59 | 274 | 0.0 | 3.0 | 0.00 | 0.03 | 0.03 | 85 | 1012.2 |
| 20260507040444 | 59 | 270 | 1.0 | 4.0 | 0.00 | 0.03 | 0.03 | 85 | 1012.0 |
| 20260507035945 | 58 | 255 | 1.0 | 4.0 | 0.00 | 0.03 | 0.03 | 85 | 1012.1 |
| 20260507035448 | 58 | 229 | 2.0 | 4.0 | 0.00 | 0.03 | 0.03 | 86 | 1012.1 |
| 20260507034944 | 58 | 229 | 3.0 | 4.0 | 0.00 | 0.03 | 0.03 | 86 | 1012.0 |
| 20260507033947 | 58 | 239 | 2.0 | 4.0 | 0.00 | 0.03 | 0.03 | 87 | 1011.8 |
| 20260507033445 | 58 | 256 | 0.0 | 4.0 | 0.00 | 0.03 | 0.03 | 88 | 1011.8 |
| 20260507032948 | 58 | 170 | 0.0 | 4.0 | 0.00 | 0.03 | 0.03 | 90 | 1011.5 |
| 20260507031944 | 56 | 197 | 0.0 | 3.0 | 0.00 | 0.03 | 0.03 | 91 | 1011.6 |
| 20260507030445 | 56 | 129 | 0.0 | 2.0 | 0.00 | 0.03 | 0.03 | 90 | 1011.6 |
| 20260507025448 | 56 | 16 | 0.0 | 0.0 | 0.00 | 0.03 | 0.03 | 89 | 1011.5 |
| 20260507024947 | 56 | 213 | 0.0 | 0.0 | 0.00 | 0.03 | 0.03 | 89 | 1011.6 |
| 20260507024444 | 56 | 305 | 0.0 | 0.0 | 0.00 | 0.03 | 0.03 | 89 | 1011.5 |
| 20260507023449 | 57 | 316 | 0.0 | 0.0 | 0.00 | 0.03 | 0.03 | 88 | 1011.7 |
| 20260507022945 | 57 | 308 | 0.0 | 1.0 | 0.00 | 0.03 | 0.03 | 89 | 1011.6 |
| 20260507022440 | 57 | 228 | 0.0 | 2.0 | 0.00 | 0.03 | 0.03 | 89 | 1011.6 |
| 20260507021933 | 57 | 118 | 2.0 | 2.0 | 0.00 | 0.03 | 0.03 | 89 | 1011.5 |
| 20260507021436 | 57 | 339 | 0.0 | 2.0 | 0.00 | 0.03 | 0.03 | 88 | 1011.8 |
| 20260507020933 | 58 | 279 | 1.0 | 2.0 | 0.00 | 0.03 | 0.03 | 87 | 1011.6 |
| 20260507020433 | 58 | 329 | 0.0 | 2.0 | 0.00 | 0.03 | 0.03 | 87 | 1011.7 |
| 20260507015938 | 58 | 330 | 0.0 | 0.0 | 0.00 | 0.03 | 0.03 | 87 | 1011.6 |
| 20260507015432 | 58 | 330 | 0.0 | 0.0 | 0.00 | 0.03 | 0.03 | 86 | 1011.7 |
| 20260507014932 | 59 | 330 | 0.0 | 0.0 | 0.00 | 0.03 | 0.03 | 86 | 1011.8 |
| 20260507014435 | 59 | 330 | 0.0 | 4.0 | 0.00 | 0.03 | 0.03 | 86 | 1011.7 |
| 20260507013932 | 59 | 330 | 0.0 | 4.0 | 0.00 | 0.03 | 0.03 | 86 | 1011.9 |
| 20260507012935 | 59 | 255 | 0.0 | 0.0 | 0.00 | 0.03 | 0.03 | 84 | 1011.9 |
| 20260507012433 | 60 | 255 | 0.0 | 0.0 | 0.00 | 0.03 | 0.03 | 84 | 1011.8 |
| 20260507011935 | 60 | 255 | 0.0 | 0.0 | 0.00 | 0.03 | 0.03 | 84 | 1011.8 |
| 20260507011435 | 60 | 253 | 0.0 | 0.0 | 0.00 | 0.03 | 0.03 | 83 | 1011.8 |
| 20260507010932 | 60 | 241 | 0.0 | 0.0 | 0.00 | 0.03 | 0.03 | 83 | 1011.7 |
| 20260507010434 | 61 | 170 | 0.0 | 0.0 | 0.00 | 0.03 | 0.03 | 82 | 1011.8 |
| 20260507005433 | 62 | 213 | 0.0 | 2.0 | 0.00 | 0.03 | 0.03 | 80 | 1011.8 |
| 20260507004423 | 63 | 260 | 0.0 | 3.0 | 0.00 | 0.03 | 0.03 | 77 | 1011.6 |
| 20260507003921 | 63 | 102 | 2.0 | 7.0 | 0.00 | 0.03 | 0.03 | 74 | 1011.9 |
| 20260507002922 | 63 | 91 | 4.0 | 10.0 | 0.00 | 0.03 | 0.03 | 75 | 1011.8 |
| 20260507002421 | 62 | 229 | 0.0 | 10.0 | 0.00 | 0.03 | 0.03 | 76 | 1011.7 |
| 20260507001925 | 62 | 223 | 2.0 | 6.0 | 0.00 | 0.03 | 0.03 | 77 | 1011.8 |
| 20260507001417 | 63 | 111 | 3.0 | 4.0 | 0.00 | 0.03 | 0.03 | 77 | 1011.9 |
| 20260507000917 | 63 | 84 | 1.0 | 6.0 | 0.00 | 0.03 | 0.03 | 77 | 1011.8 |
| 20260507000409 | 63 | 216 | 4.0 | 6.0 | 0.01 | 0.03 | 0.03 | 77 | 1011.8 |
| 20260506235909 | 63 | 105 | 0.0 | 4.0 | 0.01 | 0.03 | 0.03 | 77 | 1011.9 |
| 20260506235417 | 63 | 107 | 1.0 | 4.0 | 0.01 | 0.03 | 0.03 | 77 | 1012.1 |
| 20260506234909 | 62 | 309 | 2.0 | 4.0 | 0.02 | 0.03 | 0.03 | 78 | 1012.1 |
| 20260506234410 | 62 | 98 | 1.0 | 6.0 | 0.03 | 0.03 | 0.03 | 80 | 1011.7 |
| 20260506233911 | 62 | 121 | 1.0 | 6.0 | 0.03 | 0.03 | 0.03 | 80 | 1012.1 |
| 20260506233409 | 62 | 114 | 1.0 | 6.0 | 0.03 | 0.03 | 0.03 | 80 | 1011.8 |
| 20260506232412 | 62 | 134 | 2.0 | 17.0 | 0.03 | 0.03 | 0.03 | 81 | 1012.1 |
| 20260506231408 | 62 | 63 | 2.0 | 14.0 | 0.03 | 0.03 | 0.03 | 81 | 1012.2 |
| 20260506230911 | 63 | 137 | 1.0 | 7.0 | 0.02 | 0.03 | 0.02 | 79 | 1012.2 |
| 20260506230409 | 63 | 80 | 1.0 | 9.0 | 0.02 | 0.02 | 0.02 | 78 | 1012.4 |
| 20260506225913 | 64 | 5 | 2.0 | 9.0 | 0.02 | 0.02 | 0.02 | 75 | 1012.1 |
| 20260506225411 | 65 | 166 | 1.0 | 7.0 | 0.02 | 0.02 | 0.02 | 74 | 1012.2 |
| 20260506224909 | 65 | 169 | 2.0 | 14.0 | 0.00 | 0.01 | 0.00 | 71 | 1012.1 |
| 20260506224408 | 65 | 121 | 1.0 | 14.0 | 0.00 | 0.00 | 0.00 | 71 | 1012.1 |
| 20260506223911 | 65 | 135 | 3.0 | 4.0 | 0.00 | 0.00 | 0.00 | 70 | 1011.9 |
| 20260506223410 | 65 | 352 | 2.0 | 4.0 | 0.00 | 0.00 | 0.00 | 71 | 1011.6 |
| 20260506222908 | 65 | 17 | 1.0 | 6.0 | 0.00 | 0.00 | 0.00 | 70 | 1011.7 |
| 20260506222412 | 65 | 145 | 0.0 | 6.0 | 0.00 | 0.00 | 0.00 | 69 | 1011.5 |
| 20260506221908 | 66 | 48 | 2.0 | 8.0 | 0.00 | 0.00 | 0.00 | 68 | 1011.5 |
| 20260506221409 | 66 | 226 | 2.0 | 9.0 | 0.00 | 0.00 | 0.00 | 68 | 1011.6 |
| 20260506220913 | 65 | 137 | 4.0 | 9.0 | 0.00 | 0.00 | 0.00 | 68 | 1011.7 |
| 20260506220410 | 65 | 152 | 2.0 | 10.0 | 0.00 | 0.00 | 0.00 | 69 | 1011.6 |
| 20260506215412 | 64 | 210 | 8.0 | 13.0 | 0.00 | 0.00 | 0.00 | 73 | 1011.8 |
| 20260506214359 | 64 | 288 | 0.0 | 4.0 | 0.00 | 0.00 | 0.00 | 76 | 1011.6 |
| 20260506213358 | 64 | 269 | 0.0 | 0.0 | 0.00 | 0.00 | 0.00 | 75 | 1011.6 |
| 20260506212356 | 65 | 275 | 0.0 | 2.0 | 0.00 | 0.00 | 0.00 | 72 | 1011.5 |
| 20260506211858 | 65 | 275 | 0.0 | 7.0 | 0.00 | 0.00 | 0.00 | 72 | 1011.5 |
| 20260506211359 | 65 | 175 | 1.0 | 7.0 | 0.00 | 0.00 | 0.00 | 70 | 1011.3 |
| 20260506210845 | 65 | 115 | 1.0 | 6.0 | 0.00 | 0.00 | 0.00 | 71 | 1011.3 |
| 20260506210348 | 65 | 136 | 2.0 | 8.0 | 0.00 | 0.00 | 0.00 | 72 | 1011.1 |
| 20260506205846 | 64 | 131 | 3.0 | 8.0 | 0.00 | 0.00 | 0.00 | 75 | 1011.3 |
| 20260506205347 | 64 | 62 | 2.0 | 4.0 | 0.00 | 0.00 | 0.00 | 75 | 1011.2 |
| 20260506204847 | 65 | 95 | 1.0 | 6.0 | 0.00 | 0.00 | 0.00 | 74 | 1011.3 |
| 20260506204346 | 65 | 242 | 1.0 | 11.0 | 0.00 | 0.00 | 0.00 | 75 | 1011.2 |
| 20260506203845 | 65 | 133 | 1.0 | 11.0 | 0.00 | 0.00 | 0.00 | 74 | 1011.5 |
| 20260506203347 | 65 | 206 | 3.0 | 10.0 | 0.00 | 0.00 | 0.00 | 75 | 1011.5 |
| 20260506202844 | 65 | 321 | 1.0 | 11.0 | 0.00 | 0.00 | 0.00 | 76 | 1011.7 |
| 20260506202345 | 65 | 88 | 2.0 | 14.0 | 0.00 | 0.00 | 0.00 | 75 | 1011.6 |
| 20260506201848 | 66 | 261 | 1.0 | 14.0 | 0.00 | 0.00 | 0.00 | 73 | 1011.7 |
| 20260506201344 | 67 | 225 | 5.0 | 16.0 | 0.00 | 0.00 | 0.00 | 68 | 1012.0 |
| 20260506200347 | 69 | 215 | 7.0 | 18.0 | 0.00 | 0.00 | 0.00 | 61 | 1012.0 |
| 20260506195345 | 70 | 335 | 4.0 | 23.0 | 0.00 | 0.00 | 0.00 | 57 | 1011.6 |
| 20260506194848 | 71 | 139 | 10.0 | 23.0 | 0.00 | 0.00 | 0.00 | 55 | 1011.6 |
| 20260506194345 | 71 | 174 | 5.0 | 11.0 | 0.00 | 0.00 | 0.00 | 54 | 1011.1 |
| 20260506193847 | 71 | 145 | 4.0 | 8.0 | 0.00 | 0.00 | 0.00 | 53 | 1010.9 |
| 20260506193332 | 71 | 315 | 0.0 | 6.0 | 0.00 | 0.00 | 0.00 | 54 | 1010.7 |
| 20260506192833 | 71 | 176 | 1.0 | 13.0 | 0.00 | 0.00 | 0.00 | 54 | 1011.0 |
| 20260506192339 | 70 | 208 | 3.0 | 13.0 | 0.00 | 0.00 | 0.00 | 54 | 1011.1 |
| 20260506191834 | 70 | 123 | 1.0 | 7.0 | 0.00 | 0.00 | 0.00 | 55 | 1010.9 |
| 20260506191332 | 69 | 196 | 1.0 | 7.0 | 0.00 | 0.00 | 0.00 | 56 | 1011.1 |
| 20260506190836 | 69 | 350 | 0.0 | 4.0 | 0.00 | 0.00 | 0.00 | 57 | 1010.6 |
| 20260506190334 | 69 | 133 | 0.0 | 4.0 | 0.00 | 0.00 | 0.00 | 57 | 1010.9 |
| 20260506185833 | 69 | 49 | 0.0 | 6.0 | 0.00 | 0.00 | 0.00 | 56 | 1010.5 |
| 20260506184833 | 69 | 308 | 2.0 | 4.0 | 0.00 | 0.00 | 0.00 | 55 | 1010.5 |
| 20260506183835 | 70 | 235 | 2.0 | 4.0 | 0.00 | 0.00 | 0.00 | 53 | 1010.7 |
| 20260506183330 | 71 | 320 | 0.0 | 4.0 | 0.00 | 0.00 | 0.00 | 53 | 1010.3 |
| 20260506182825 | 71 | 290 | 3.0 | 4.0 | 0.00 | 0.00 | 0.00 | 52 | 1010.1 |
| 20260506182308 | 71 | 215 | 2.0 | 6.0 | 0.00 | 0.00 | 0.00 | 51 | 1010.3 |
| 20260506181811 | 71 | 156 | 1.0 | 6.0 | 0.00 | 0.00 | 0.00 | 51 | 1010.2 |
| 20260506181310 | 72 | 175 | 1.0 | 8.0 | 0.00 | 0.00 | 0.00 | 50 | 1010.0 |
| 20260506180808 | 72 | 265 | 1.0 | 8.0 | 0.00 | 0.00 | 0.00 | 50 | 1010.3 |
| 20260506175808 | 72 | 196 | 0.0 | 10.0 | 0.00 | 0.00 | 0.00 | 50 | 1010.0 |
| 20260506175309 | 72 | 254 | 1.0 | 10.0 | 0.00 | 0.00 | 0.00 | 49 | 1010.0 |
| 20260506174813 | 73 | 241 | 1.0 | 6.0 | 0.00 | 0.00 | 0.00 | 49 | 1010.0 |
| 20260506174309 | 73 | 233 | 0.0 | 6.0 | 0.00 | 0.00 | 0.00 | 49 | 1010.0 |
| 20260506173809 | 73 | 287 | 2.0 | 6.0 | 0.00 | 0.00 | 0.00 | 49 | 1010.1 |
| 20260506173313 | 73 | 301 | 0.0 | 7.0 | 0.00 | 0.00 | 0.00 | 48 | 1010.1 |
| 20260506172808 | 74 | 287 | 0.0 | 7.0 | 0.00 | 0.00 | 0.00 | 48 | 1010.0 |
| 20260506172309 | 74 | 339 | 1.0 | 4.0 | 0.00 | 0.00 | 0.00 | 48 | 1010.0 |
| 20260506171812 | 74 | 109 | 1.0 | 4.0 | 0.00 | 0.00 | 0.00 | 47 | 1009.8 |
| 20260506171310 | 74 | 201 | 0.0 | 7.0 | 0.00 | 0.00 | 0.00 | 47 | 1010.2 |
| 20260506170809 | 74 | 122 | 3.0 | 7.0 | 0.00 | 0.00 | 0.00 | 47 | 1009.9 |
| 20260506170311 | 74 | 239 | 2.0 | 7.0 | 0.00 | 0.00 | 0.00 | 46 | 1009.9 |
| 20260506165809 | 75 | 191 | 2.0 | 7.0 | 0.00 | 0.00 | 0.00 | 46 | 1009.9 |
| 20260506164308 | 75 | 124 | 1.0 | 8.0 | 0.00 | 0.00 | 0.00 | 45 | 1010.0 |
| 20260506163311 | 75 | 278 | 3.0 | 9.0 | 0.00 | 0.00 | 0.00 | 44 | 1009.7 |
| 20260506162810 | 76 | 111 | 3.0 | 9.0 | 0.00 | 0.00 | 0.00 | 44 | 1009.8 |
| 20260506162311 | 76 | 93 | 2.0 | 13.0 | 0.00 | 0.00 | 0.00 | 44 | 1010.0 |
| 20260506161811 | 76 | 310 | 3.0 | 13.0 | 0.00 | 0.00 | 0.00 | 43 | 1010.1 |
| 20260506161308 | 76 | 283 | 2.0 | 9.0 | 0.00 | 0.00 | 0.00 | 43 | 1010.1 |
| 20260506160810 | 76 | 107 | 2.0 | 6.0 | 0.00 | 0.00 | 0.00 | 42 | 1010.0 |
| 20260506160311 | 77 | 73 | 0.0 | 11.0 | 0.00 | 0.00 | 0.00 | 42 | 1009.9 |
| 20260506155809 | 77 | 179 | 3.0 | 11.0 | 0.00 | 0.00 | 0.00 | 42 | 1010.1 |
| 20260506155309 | 77 | 214 | 2.0 | 9.0 | 0.00 | 0.00 | 0.00 | 43 | 1009.9 |
| 20260506154813 | 77 | 148 | 2.0 | 10.0 | 0.00 | 0.00 | 0.00 | 42 | 1010.1 |
| 20260506154309 | 77 | 75 | 0.0 | 10.0 | 0.00 | 0.00 | 0.00 | 42 | 1010.0 |
| 20260506153809 | 77 | 160 | 4.0 | 10.0 | 0.00 | 0.00 | 0.00 | 42 | 1010.2 |
| 20260506153313 | 77 | 222 | 3.0 | 10.0 | 0.00 | 0.00 | 0.00 | 42 | 1010.1 |
| 20260506152814 | 77 | 301 | 3.0 | 10.0 | 0.00 | 0.00 | 0.00 | 42 | 1010.1 |
| 20260506152308 | 77 | 283 | 1.0 | 10.0 | 0.00 | 0.00 | 0.00 | 41 | 1010.2 |
| 20260506151812 | 77 | 34 | 2.0 | 10.0 | 0.00 | 0.00 | 0.00 | 41 | 1010.0 |
| 20260506151308 | 77 | 94 | 2.0 | 11.0 | 0.00 | 0.00 | 0.00 | 41 | 1010.2 |
| 20260506150810 | 77 | 133 | 0.0 | 13.0 | 0.00 | 0.00 | 0.00 | 40 | 1010.2 |
| 20260506150304 | 78 | 117 | 3.0 | 13.0 | 0.00 | 0.00 | 0.00 | 39 | 1010.1 |
| 20260506145757 | 78 | 84 | 1.0 | 11.0 | 0.00 | 0.00 | 0.00 | 39 | 1010.2 |
| 20260506145305 | 78 | 233 | 4.0 | 8.0 | 0.00 | 0.00 | 0.00 | 39 | 1010.2 |
| 20260506144758 | 78 | 350 | 2.0 | 13.0 | 0.00 | 0.00 | 0.00 | 40 | 1010.5 |
| 20260506143801 | 78 | 123 | 2.0 | 15.0 | 0.00 | 0.00 | 0.00 | 40 | 1010.3 |
| 20260506142758 | 78 | 207 | 6.0 | 10.0 | 0.00 | 0.00 | 0.00 | 40 | 1010.3 |
| 20260506142301 | 77 | 134 | 1.0 | 10.0 | 0.00 | 0.00 | 0.00 | 39 | 1010.5 |
| 20260506141759 | 77 | 149 | 1.0 | 8.0 | 0.00 | 0.00 | 0.00 | 39 | 1010.4 |
| 20260506141258 | 77 | 229 | 5.0 | 10.0 | 0.00 | 0.00 | 0.00 | 38 | 1010.6 |
| 20260506140800 | 77 | 198 | 4.0 | 9.0 | 0.00 | 0.00 | 0.00 | 38 | 1010.5 |
| 20260506140258 | 77 | 162 | 6.0 | 14.0 | 0.00 | 0.00 | 0.00 | 38 | 1010.3 |
| 20260506135305 | 79 | 124 | 9.0 | 11.0 | 0.00 | 0.00 | 0.00 | 36 | 1010.2 |
| 20260506134758 | 79 | 257 | 2.0 | 15.0 | 0.00 | 0.00 | 0.00 | 36 | 1010.4 |
| 20260506134258 | 79 | 191 | 4.0 | 15.0 | 0.00 | 0.00 | 0.00 | 37 | 1010.6 |
| 20260506133802 | 79 | 192 | 2.0 | 10.0 | 0.00 | 0.00 | 0.00 | 37 | 1010.6 |
| 20260506133256 | 78 | 51 | 1.0 | 15.0 | 0.00 | 0.00 | 0.00 | 36 | 1010.5 |
| 20260506132757 | 78 | 47 | 0.0 | 15.0 | 0.00 | 0.00 | 0.00 | 38 | 1010.9 |
| 20260506132259 | 78 | 148 | 0.0 | 14.0 | 0.00 | 0.00 | 0.00 | 37 | 1010.5 |
| 20260506131757 | 78 | 230 | 5.0 | 14.0 | 0.00 | 0.00 | 0.00 | 37 | 1010.7 |
| 20260506131256 | 78 | 277 | 7.0 | 10.0 | 0.00 | 0.00 | 0.00 | 38 | 1010.9 |
| 20260506130759 | 78 | 213 | 7.0 | 10.0 | 0.00 | 0.00 | 0.00 | 37 | 1010.5 |
| 20260506130258 | 78 | 88 | 1.0 | 11.0 | 0.00 | 0.00 | 0.00 | 37 | 1010.7 |
| 20260506125757 | 78 | 200 | 6.0 | 14.0 | 0.00 | 0.00 | 0.00 | 36 | 1011.0 |
| 20260506125300 | 78 | 354 | 2.0 | 21.0 | 0.00 | 0.00 | 0.00 | 37 | 1010.9 |
| 20260506124757 | 78 | 205 | 5.0 | 21.0 | 0.00 | 0.00 | 0.00 | 37 | 1011.0 |
| 20260506123800 | 78 | 110 | 2.0 | 13.0 | 0.00 | 0.00 | 0.00 | 37 | 1011.0 |
| 20260506122756 | 78 | 237 | 4.0 | 14.0 | 0.00 | 0.00 | 0.00 | 39 | 1010.9 |
| 20260506122259 | 78 | 110 | 2.0 | 17.0 | 0.00 | 0.00 | 0.00 | 37 | 1011.1 |
| 20260506121756 | 78 | 93 | 3.0 | 17.0 | 0.00 | 0.00 | 0.00 | 37 | 1011.2 |
| 20260506121257 | 78 | 329 | 5.0 | 15.0 | 0.00 | 0.00 | 0.00 | 38 | 1011.4 |
| 20260506120803 | 77 | 186 | 6.0 | 18.0 | 0.00 | 0.00 | 0.00 | 39 | 1011.0 |
| 20260506115757 | 78 | 144 | 8.0 | 23.0 | 0.00 | 0.00 | 0.00 | 41 | 1011.4 |
| 20260506114745 | 77 | 104 | 4.0 | 16.0 | 0.00 | 0.00 | 0.00 | 38 | 1011.0 |
| 20260506114249 | 77 | 59 | 7.0 | 16.0 | 0.00 | 0.00 | 0.00 | 43 | 1011.2 |
| 20260506113744 | 77 | 100 | 6.0 | 15.0 | 0.00 | 0.00 | 0.00 | 43 | 1011.5 |
| 20260506113247 | 76 | 126 | 2.0 | 16.0 | 0.00 | 0.00 | 0.00 | 43 | 1011.3 |
| 20260506112748 | 76 | 108 | 6.0 | 16.0 | 0.00 | 0.00 | 0.00 | 43 | 1011.4 |
| 20260506111746 | 76 | 134 | 2.0 | 19.0 | 0.00 | 0.00 | 0.00 | 45 | 1011.4 |
| 20260506111247 | 76 | 46 | 3.0 | 19.0 | 0.00 | 0.00 | 0.00 | 44 | 1011.7 |
| 20260506110745 | 76 | 89 | 3.0 | 13.0 | 0.00 | 0.00 | 0.00 | 45 | 1011.4 |
| 20260506110247 | 76 | 230 | 5.0 | 13.0 | 0.00 | 0.00 | 0.00 | 43 | 1011.5 |
| 20260506105747 | 76 | 96 | 3.0 | 13.0 | 0.00 | 0.00 | 0.00 | 45 | 1011.6 |
| 20260506105244 | 76 | 132 | 1.0 | 17.0 | 0.00 | 0.00 | 0.00 | 46 | 1011.7 |
| 20260506104745 | 75 | 212 | 3.0 | 17.0 | 0.00 | 0.00 | 0.00 | 47 | 1011.6 |
| 20260506104247 | 75 | 114 | 6.0 | 15.0 | 0.00 | 0.00 | 0.00 | 47 | 1011.7 |
| 20260506103748 | 74 | 173 | 7.0 | 14.0 | 0.00 | 0.00 | 0.00 | 48 | 1011.9 |
| 20260506103244 | 74 | 121 | 3.0 | 15.0 | 0.00 | 0.00 | 0.00 | 48 | 1011.9 |
| 20260506102747 | 74 | 95 | 3.0 | 15.0 | 0.00 | 0.00 | 0.00 | 50 | 1011.9 |
| 20260506102246 | 73 | 111 | 4.0 | 15.0 | 0.00 | 0.00 | 0.00 | 52 | 1012.0 |
| 20260506101746 | 72 | 168 | 4.0 | 10.0 | 0.00 | 0.00 | 0.00 | 51 | 1011.9 |
| 20260506101247 | 73 | 282 | 1.0 | 10.0 | 0.00 | 0.00 | 0.00 | 51 | 1012.0 |
| 20260506100247 | 72 | 60 | 0.0 | 11.0 | 0.00 | 0.00 | 0.00 | 52 | 1012.1 |
| 20260506095246 | 72 | 156 | 5.0 | 11.0 | 0.00 | 0.00 | 0.00 | 51 | 1012.1 |
| 20260506094745 | 72 | 109 | 4.0 | 11.0 | 0.00 | 0.00 | 0.00 | 50 | 1012.0 |
| 20260506094250 | 72 | 140 | 8.0 | 11.0 | 0.00 | 0.00 | 0.00 | 50 | 1012.1 |
| 20260506093747 | 72 | 297 | 2.0 | 13.0 | 0.00 | 0.00 | 0.00 | 51 | 1012.0 |
| 20260506093245 | 72 | 181 | 4.0 | 13.0 | 0.00 | 0.00 | 0.00 | 52 | 1012.1 |
| 20260506092746 | 71 | 148 | 2.0 | 8.0 | 0.00 | 0.00 | 0.00 | 53 | 1012.1 |
| 20260506091733 | 71 | 134 | 5.0 | 13.0 | 0.00 | 0.00 | 0.00 | 52 | 1012.1 |
| 20260506090732 | 71 | 158 | 4.0 | 11.0 | 0.00 | 0.00 | 0.00 | 53 | 1012.4 |
| 20260506090234 | 71 | 97 | 3.0 | 15.0 | 0.00 | 0.00 | 0.00 | 52 | 1012.2 |
| 20260506085233 | 70 | 105 | 5.0 | 11.0 | 0.00 | 0.00 | 0.00 | 54 | 1012.1 |
| 20260506084734 | 70 | 129 | 6.0 | 10.0 | 0.00 | 0.00 | 0.00 | 54 | 1012.0 |
| 20260506084215 | 69 | 111 | 4.0 | 15.0 | 0.00 | 0.00 | 0.00 | 55 | 1012.3 |
| 20260506083711 | 70 | 158 | 9.0 | 15.0 | 0.00 | 0.00 | 0.00 | 55 | 1012.1 |
| 20260506082658 | 69 | 205 | 4.0 | 11.0 | 0.00 | 0.00 | 0.00 | 56 | 1012.2 |
| 20260506081157 | 69 | 50 | 4.0 | 10.0 | 0.00 | 0.00 | 0.00 | 56 | 1012.1 |
| 20260506080156 | 68 | 129 | 4.0 | 9.0 | 0.00 | 0.00 | 0.00 | 58 | 1012.0 |
| 20260506072700 | 67 | 93 | 6.0 | 8.0 | 0.00 | 0.00 | 0.00 | 59 | 1012.3 |
| 20260506072158 | 66 | 114 | 2.0 | 8.0 | 0.00 | 0.00 | 0.00 | 60 | 1012.3 |
| 20260506071158 | 66 | 148 | 2.0 | 9.0 | 0.00 | 0.00 | 0.00 | 60 | 1012.2 |
| 20260506070659 | 65 | 101 | 4.0 | 9.0 | 0.00 | 0.00 | 0.00 | 61 | 1012.2 |
| 20260506070158 | 65 | 136 | 3.0 | 9.0 | 0.00 | 0.00 | 0.00 | 61 | 1012.4 |